Midland, TX

12:13 PM CST on December 03, 2016 (GMT -0600)
Midland

Weather History for KMDD - January, 2013

Change the Weather History Date:

Tuesday, January 8, 2013

  Actual Average (KMAF) Record (KMAF)
Temperature  
Mean Temperature 39 °F 43 °F  
Max Temperature 48 °F 57 °F 81 °F (1969)
Min Temperature 30 °F 30 °F 10 °F (1967)
Degree Days  
Heating Degree Days 26 22  
Month to date heating degree days 176  
Since 1 July heating degree days 1292  
Moisture  
Dew Point 37 °F    
Average Humidity 85    
Maximum Humidity 95    
Minimum Humidity 68    
Precipitation  
Precipitation 0.00 in 0.01 in 2.56 in (1939)
Month to date precipitation 0.11  
Year to date precipitation 0.11  
Snow  
Snow 0.00 in - - ()
Month to date snowfall  
Since 1 July snowfall  
Snow Depth -    
Sea Level Pressure  
Sea Level Pressure 29.98 in    
Wind  
Wind Speed 4 mph (NE)    
Max Wind Speed 15 mph    
Max Gust Speed 20 mph    
Visibility 7 miles    
Events Fog , Rain    
T = Trace of Precipitation, MM = Missing Value Source: NWS Daily Summary

Daily Weather History Graph

Daily Weather History Graph

Search for Another Location

Airport or City:

Trip Planner

Search our weather history database for the weather conditions in past years. The results will help you decide how hot, cold, wet, or windy it might be!

Date:

Astronomy

Jan. 08, 2013 Rise Set
Actual Time 7:49 AM CST 6:00 PM CST
Civil Twilight 7:23 AM CST 6:27 PM CST
Nautical Twilight 6:52 AM CST 6:57 PM CST
Astronomical Twilight 6:23 AM CST 7:27 PM CST
Moon 4:26 AM CST (1/8) 3:04 PM CST (1/8)
Length of Visible Light 11h 04m
Length of Day
10h 10m
Waning Crescent, 13% of the Moon is Illuminated
Jan 8
Waning Crescent
Jan 11
New
Jan 18
First Quarter
Jan 26
Full
Feb 3
Last Quarter

Hourly Weather History & Observations

Time (CST) Temp. Windchill Dew Point Humidity Pressure Visibility Wind Dir Wind Speed Gust Speed Precip Events Conditions
12:35 AM 36.5 °F 33.9 °F 27.5 °F 70% 29.98 in 10.0 mi ESE 3.5 mph - N/A   Clear
12:55 AM 36.9 °F - 27.3 °F 68% 29.98 in 10.0 mi Calm Calm - N/A   Clear
1:15 AM 36.5 °F - 27.1 °F 69% 29.97 in 10.0 mi Calm Calm - N/A   Clear
1:35 AM 35.4 °F - 27.0 °F 71% 29.97 in 10.0 mi Calm Calm - N/A   Clear
1:55 AM 34.9 °F 32.0 °F 26.6 °F 72% 29.97 in 10.0 mi East 3.5 mph - N/A   Clear
2:15 AM 33.1 °F 28.7 °F 26.1 °F 75% 29.97 in 10.0 mi East 4.6 mph - N/A   Clear
2:35 AM 32.0 °F 28.7 °F 25.7 °F 78% 29.98 in 10.0 mi ENE 3.5 mph - N/A   Clear
2:55 AM 31.5 °F 28.1 °F 25.7 °F 79% 29.97 in 10.0 mi NE 3.5 mph - N/A   Clear
3:15 AM 31.5 °F 28.1 °F 25.9 °F 80% 29.97 in 10.0 mi NE 3.5 mph - N/A   Clear
3:35 AM 31.5 °F 26.8 °F 25.9 °F 80% 29.97 in 10.0 mi NE 4.6 mph - N/A   Clear
3:55 AM 30.9 °F 27.5 °F 25.7 °F 81% 29.96 in 10.0 mi ENE 3.5 mph - N/A   Clear
4:15 AM 30.9 °F 27.5 °F 25.5 °F 80% 29.96 in 10.0 mi East 3.5 mph - N/A   Clear
4:35 AM 30.9 °F - 25.5 °F 80% 29.95 in 10.0 mi Calm Calm - N/A   Clear
4:55 AM 30.9 °F - 25.5 °F 80% 29.95 in 10.0 mi Calm Calm - N/A   Clear
5:15 AM 31.5 °F 28.1 °F 26.2 °F 81% 29.95 in 10.0 mi NE 3.5 mph - N/A   Mostly Cloudy
5:35 AM 32.0 °F 28.7 °F 27.0 °F 82% 29.95 in 10.0 mi NE 3.5 mph - N/A   Overcast
5:55 AM 32.7 °F 29.6 °F 27.9 °F 82% 29.95 in 10.0 mi East 3.5 mph - N/A   Overcast
6:15 AM 34.3 °F 30.2 °F 29.7 °F 83% 29.96 in 10.0 mi East 4.6 mph - N/A   Overcast
6:35 AM 36.5 °F - 33.1 °F 87% 29.96 in 5.0 mi Calm Calm - N/A   Overcast
6:55 AM 36.5 °F 33.9 °F 33.4 °F 89% 29.96 in 5.0 mi NE 3.5 mph - N/A   Overcast
7:15 AM 36.7 °F - 34.2 °F 91% 29.97 in 1.0 mi Calm Calm - N/A   Overcast
7:35 AM 36.9 °F - 35.2 °F 94% 29.97 in 0.5 mi Calm Calm - N/A Fog Fog
7:55 AM 36.9 °F - 35.2 °F 94% 29.98 in 1.2 mi Calm Calm - N/A   Overcast
8:15 AM 37.0 °F - 35.6 °F 95% 29.99 in 1.5 mi Calm Calm - N/A   Overcast
8:35 AM 37.6 °F - 36.0 °F 94% 29.99 in 4.0 mi Calm Calm - N/A   Overcast
8:55 AM 38.5 °F 36.1 °F 35.1 °F 87% 30.00 in 5.0 mi East 3.5 mph - N/A   Overcast
9:15 AM 39.2 °F 37.0 °F 35.1 °F 85% 30.01 in 2.5 mi ENE 3.5 mph - N/A   Overcast
9:35 AM 38.8 °F 36.5 °F 35.8 °F 89% 30.02 in 2.0 mi NNE 3.5 mph - N/A   Overcast
9:55 AM 38.7 °F 36.3 °F 36.3 °F 91% 30.02 in 2.0 mi NNE 3.5 mph - N/A   Overcast
10:15 AM 38.8 °F - 36.7 °F 92% 30.02 in 1.8 mi Calm Calm - N/A   Overcast
10:35 AM 39.4 °F 37.2 °F 37.4 °F 93% 30.02 in 1.8 mi NNE 3.5 mph - N/A   Overcast
10:55 AM 39.9 °F 37.8 °F 38.1 °F 93% 30.02 in 2.0 mi NNE 3.5 mph - N/A   Overcast
11:15 AM 40.3 °F 37.1 °F 38.5 °F 93% 30.01 in 2.5 mi NNE 4.6 mph - N/A   Overcast
11:55 AM 41.2 °F 37.3 °F 39.2 °F 93% 30.00 in 2.5 mi NE 5.8 mph - N/A   Overcast
12:55 PM 44.6 °F 42.2 °F 41.0 °F 87% 29.97 in 4.0 mi NE 4.6 mph - N/A   Overcast
1:15 PM 45.5 °F 43.2 °F 41.4 °F 85% 29.95 in 5.0 mi NNE 4.6 mph - N/A   Overcast
1:55 PM 46.6 °F - 41.9 °F 84% 29.94 in 7.0 mi NE 5.8 mph - N/A   Overcast
2:15 PM 46.9 °F - 41.9 °F 83% 29.94 in 10.0 mi ENE 4.6 mph - N/A   Overcast
2:35 PM 47.3 °F - 42.1 °F 82% 29.94 in 10.0 mi NNE 4.6 mph - N/A   Overcast
2:55 PM 47.8 °F - 42.3 °F 81% 29.93 in 10.0 mi NE 4.6 mph - N/A   Overcast
3:15 PM 48.2 °F - 42.1 °F 79% 29.93 in 10.0 mi NE 6.9 mph - N/A   Overcast
3:35 PM 48.4 °F - 42.1 °F 79% 29.94 in 10.0 mi NE 5.8 mph - N/A   Overcast
3:55 PM 48.6 °F - 42.3 °F 79% 29.95 in 10.0 mi NE 4.6 mph - N/A   Overcast
4:15 PM 48.7 °F - 42.3 °F 78% 29.97 in 10.0 mi East 5.8 mph - N/A   Overcast
4:35 PM 48.6 °F - 42.4 °F 79% 29.98 in 7.0 mi ESE 3.5 mph - N/A   Overcast
4:55 PM 48.2 °F - 43.0 °F 82% 29.96 in 7.0 mi North 3.5 mph - N/A   Overcast
5:15 PM 48.2 °F - 42.8 °F 82% 29.95 in 10.0 mi NNW 5.8 mph - N/A   Overcast
5:35 PM 48.4 °F - 42.6 °F 80% 29.95 in 10.0 mi NNW 8.1 mph - N/A   Overcast
5:55 PM 48.0 °F - 42.3 °F 80% 29.94 in 10.0 mi NNW 10.4 mph - N/A   Scattered Clouds
6:15 PM 47.3 °F - 41.9 °F 82% 29.95 in 10.0 mi North 6.9 mph - N/A   Clear
6:35 PM 46.4 °F 44.3 °F 41.5 °F 83% 29.97 in 10.0 mi NE 4.6 mph - N/A   Clear
6:55 PM 45.0 °F 41.2 °F 41.2 °F 87% 29.97 in 10.0 mi NE 6.9 mph - N/A   Mostly Cloudy
7:15 PM 45.3 °F 41.6 °F 42.1 °F 88% 29.97 in 10.0 mi NE 6.9 mph - N/A   Overcast
7:35 PM 46.6 °F - 42.8 °F 87% 29.97 in 10.0 mi NNE 8.1 mph - N/A   Overcast
7:55 PM 47.3 °F - 42.8 °F 84% 29.99 in 10.0 mi NE 8.1 mph - N/A   Overcast
8:15 PM 47.3 °F - 42.8 °F 84% 29.99 in 10.0 mi NE 12.7 mph - N/A   Overcast
8:35 PM 46.9 °F - 42.8 °F 86% 30.01 in 7.0 mi NE 11.5 mph - N/A   Overcast
8:55 PM 46.6 °F - 43.3 °F 88% 30.00 in 5.0 mi NNE 8.1 mph - N/A   Overcast
9:15 PM 46.4 °F 41.1 °F 43.9 °F 91% 30.02 in 7.0 mi NE 11.5 mph - N/A   Overcast
9:35 PM 46.4 °F 40.1 °F 44.4 °F 93% 30.03 in 1.2 mi NE 15.0 mph - N/A   Overcast
9:55 PM 46.2 °F 40.1 °F 44.6 °F 94% 30.04 in 1.8 mi NE 13.8 mph 19.6 mph N/A Rain Light Rain
10:15 PM 46.0 °F 40.6 °F 44.6 °F 95% 30.08 in 2.5 mi ENE 11.5 mph - N/A   Drizzle
10:35 PM 45.7 °F 39.8 °F 44.4 °F 95% 30.08 in 2.5 mi NE 12.7 mph 16.1 mph N/A Rain Rain
10:55 PM 45.5 °F 39.2 °F 43.9 °F 94% 30.07 in 3.0 mi NE 13.8 mph - N/A   Light Drizzle
11:15 PM 45.0 °F 40.1 °F 43.5 °F 95% 30.07 in 3.0 mi NNE 9.2 mph - N/A   Overcast
11:35 PM 44.8 °F 39.9 °F 43.3 °F 95% 30.07 in 4.0 mi NNE 9.2 mph - N/A   Overcast
11:55 PM 44.8 °F 39.0 °F 43.3 °F 95% 30.09 in 3.0 mi NE 11.5 mph - N/A   Overcast